120  
ASUS45 KABQ 150201  
RWRNM  
NEW MEXICO REGIONAL WEATHER ROUNDUP  
NATIONAL WEATHER SERVICE ALBUQUERQUE NM  
800 PM MDT FRI JUN 14 2024  
 
NOTE: "FAIR" MEANS FEW OR NO CLOUDS BELOW 12,000 FEET AGL WITH NO  
SIGNIFICANT WEATHER OR S TO VISION.  
 
THIS PRODUCT IS RELEASED AS TWO VERSIONS. ONE VERSION NEAR  
THE TOP OF THE HOUR CONTAINING PRELIMINARY DATA FROM ALBUQUERQUE  
AND OTHER STATIONS. A FINAL VERSION WITH ADDITIONAL DATA IS  
ISSUED ABOUT 10 MINUTES AFTER THE HOUR.  
 
NMZ201-203-204-210>218-150300-  
NORTHWEST PLATEAU/NORTHCENTRAL MOUNTAINS  
 
CITY SKY/WX TMP DP RH WIND PRES REMARKS
 
FARMINGTON FAIR 69 47 45 E9 N/A  
SANTA FE N/A 62 52 69 NE17 30.20F  
TAOS FAIR 59 48 67 S6 30.30F  
 

 
NMZ202-205>209-241-402-403-150300-  
WESTCENTRAL MOUNTAINS/SOUTHWEST MOUNTAINS  
 
CITY SKY/WX TMP DP RH WIND PRES REMARKS
 
GALLUP FAIR 73 40 30 E7 30.17F  
GRANTS FAIR 66 51 57 N8 30.22S  
 

 
NMZ407-409-411-412-150300-  
SOUTHERN DESERTS  
 
CITY SKY/WX TMP DP RH WIND PRES REMARKS
 
DEMING FAIR 97 22 7 W17G26 29.92R  
LAS CRUCES FAIR 97 35 11 W3 29.93S  
ALAMOGORDO FAIR 90 36 14 SE7 29.91S  
T OR C FAIR 92 40 16 NE9 29.94F  
 

 
NMZ219>223-150300-  
CENTRAL VALLEYS/CENTRAL HIGHLANDS  
 
CITY SKY/WX TMP DP RH WIND PRES REMARKS
 
ALBUQUERQUE FAIR 71 50 47 E12 30.11S  
DOUBLE EAGLE CLEAR 61 54 77 N9 30.15R  
MORIARTY ARPT MOCLDY 64 50 59 NE9 30.23F  
CLINES CORNERS MOCLDY 59 47 64 NW21G36 30.28R  
BELEN FAIR 71 47 42 N16 30.09F  
SOCORRO FAIR 76 47 35 N20G29 30.03R  
 

 
NMZ224>226-239-240-150300-  
SOUTHCENTRAL MOUNTAINS  
 
CITY SKY/WX TMP DP RH WIND PRES REMARKS
 
RUIDOSO FAIR 73 45 35 E7 30.21S  
 

 
NMZ227>231-150300-  
NORTHEAST HIGHLANDS/NORTHEAST PLAINS  
 
CITY SKY/WX TMP DP RH WIND PRES REMARKS
 
LAS VEGAS FAIR 66 47 50 SW10 30.24R  
RATON FAIR 66 51 58 W6 30.16R  
CLAYTON FAIR 62 58 86 E9 30.09F  
 

 
NMZ232>237-150300-  
EASTCENTRAL PLAINS  
 
CITY SKY/WX TMP DP RH WIND PRES REMARKS
 
TUCUMCARI FAIR 69 59 70 E8 30.03F  
CANNON AFB NOT AVBL  
CLOVIS AIRPORT TSTM 66 62 87 E14 30.09F  
 

 
NMZ028-029-033-238-150300-  
SOUTHEAST PLAINS  
 
CITY SKY/WX TMP DP RH WIND PRES REMARKS
 
ROSWELL MOCLDY 91 50 24 NE12G21 29.94R  
ARTESIA FAIR 93 52 24 SE22G30 29.92S  
CARLSBAD FAIR 93 54 26 SE16G26 29.89R  
HOBBS FAIR 88 50 27 SE18G26 29.96R  
 

 
 
 
CLICK HERE TO GO TO PREVIOUS BULLETINS.

The Nexlab NM Page Main Text Page